Theta_e
310 311 311 310 309 305 301 298 298 298 299 299 300 300 308 312 312 319 321 322 326 328 327 326 326 329 330 331 334 332 329 331 329 328 327 328 332 332 336 334 331 331 330 328 326 327 336 327 324 325 327 324 321 320
310 312 312 310 309 305 301 298 298 299 299 299 300 301 305 312 313 318 321 321 324 325 325 321 321 322 322 323 331 329 331 330 329 330 328 330 330 330 334 335 328 335 326 329 328 333 330 326 327 325 324 322 321 319
311 312 312 310 308 306 301 298 298 299 300 300 300 303 302 311 314 317 320 322 325 323 325 324 322 320 320 320 321 332 329 329 331 330 331 331 335 332 335 331 332 328 324 328 333 327 326 326 324 323 321 320 318 316
312 312 312 311 308 307 302 298 298 299 300 300 302 307 305 310 313 317 319 319 324 324 324 323 321 319 320 319 320 323 326 326 329 327 327 329 330 330 330 328 328 327 329 330 331 326 326 325 323 322 320 318 316 313
311 310 311 310 308 307 301 298 298 300 300 301 306 309 308 308 309 317 317 317 319 325 325 322 320 319 318 319 320 323 325 330 325 327 329 330 328 330 325 326 329 328 332 334 330 326 324 324 322 320 319 318 314 313
310 311 311 309 307 305 299 298 299 300 301 302 308 310 309 309 312 319 321 317 315 321 326 323 319 319 318 318 319 322 322 324 323 327 328 326 326 332 325 330 328 327 329 330 328 325 323 322 320 319 319 316 313 313
310 310 310 308 307 302 298 298 300 301 302 305 310 311 311 310 313 315 317 313 314 321 325 322 323 319 320 320 319 320 321 321 323 324 327 327 325 328 328 331 328 327 327 326 325 326 325 322 322 318 317 314 312 312
310 311 309 307 304 298 299 300 301 302 303 309 311 311 310 313 314 316 313 309 317 321 321 322 321 322 321 323 322 321 320 319 321 321 323 323 322 326 329 326 327 326 327 326 325 324 322 321 319 318 317 313 314 314
311 310 307 305 298 299 301 302 303 304 307 311 310 309 314 314 314 314 309 310 318 321 321 324 326 324 320 321 322 323 324 321 322 323 322 325 325 328 325 325 325 324 324 325 326 327 322 321 321 319 317 314 315 314
310 308 305 299 298 301 303 305 305 306 309 308 312 314 314 314 311 314 319 317 315 317 320 320 320 321 322 322 322 324 323 323 325 324 323 325 326 323 322 321 321 322 321 320 324 326 325 323 322 321 319 316 314 315
309 306 299 298 300 302 306 307 307 308 309 313 313 315 313 311 316 315 315 316 317 317 319 319 322 322 320 324 323 322 324 322 324 326 327 324 325 322 320 320 319 319 319 319 319 319 322 323 323 321 320 316 314 314
306 300 297 300 301 304 306 308 310 314 313 312 313 313 314 314 315 316 316 317 319 320 318 321 319 319 320 320 322 321 323 321 325 323 324 327 323 321 320 319 319 318 318 318 318 318 318 319 321 321 320 317 315 314
301 297 299 301 302 305 306 308 308 308 310 315 314 313 315 315 322 317 318 319 321 320 318 319 320 319 320 319 320 320 320 324 321 323 326 324 320 319 320 320 319 317 317 318 318 319 319 319 320 321 320 317 315 314
298 297 299 301 302 305 307 308 306 310 314 314 314 315 318 318 319 319 320 320 319 319 318 318 319 318 317 318 318 320 320 319 320 322 325 321 321 320 319 318 317 318 318 318 319 319 319 320 320 320 319 317 314 314
297 297 299 301 302 305 306 307 307 313 313 315 315 320 319 317 317 316 317 317 317 318 318 319 319 317 318 317 317 318 319 320 322 324 321 320 320 319 318 317 317 317 317 318 318 318 318 318 319 319 319 315 315 315
297 298 301 300 302 305 306 309 311 312 311 315 318 317 317 317 317 317 317 317 315 317 317 317 316 316 317 317 318 319 318 323 323 320 318 318 319 318 317 316 315 315 315 315 317 318 318 317 317 318 318 315 314 313
299 303 299 301 304 305 306 311 310 310 312 315 318 317 318 318 318 316 315 315 314 316 317 316 316 319 316 316 318 318 321 320 318 317 317 318 318 317 315 314 314 314 313 314 316 317 317 316 315 314 314 313 313 313
303 300 300 303 307 307 308 309 308 310 313 315 317 317 316 316 316 315 314 313 314 314 315 317 315 315 315 315 318 317 316 315 315 316 316 316 316 315 314 314 313 312 313 312 313 315 317 317 316 314 312 312 313 313
303 303 303 304 306 307 307 308 310 310 312 312 314 314 315 314 313 313 312 312 311 311 313 313 313 313 315 316 315 314 315 315 315 315 314 315 314 312 312 312 312 312 312 313 314 313 313 313 315 315 314 312 312 312
302 303 302 302 306 307 307 308 309 310 312 312 312 313 313 314 313 312 312 312 311 311 311 311 311 314 314 314 314 314 314 313 313 313 313 312 312 311 311 311 311 311 311 310 312 312 310 311 312 312 313 315 314 312
304 302 303 307 306 306 307 308 310 311 310 312 312 312 313 312 312 312 312 310 311 311 311 311 312 314 312 312 312 312 312 311 312 312 313 312 310 311 310 310 310 311 309 310 310 312 311 310 311 311 310 311 313 312
303 303 306 305 306 306 308 308 310 309 312 312 311 311 311 311 311 312 311 311 312 312 311 313 313 312 311 311 312 312 311 311 311 311 310 310 311 310 310 310 309 310 310 310 309 310 311 311 309 308 307 309 312 314
303 304 305 305 306 308 309 309 310 310 310 311 310 311 311 311 313 311 313 312 312 311 311 311 312 312 311 311 311 311 311 311 310 309 309 309 309 309 309 308 308 308 308 308 307 308 309 310 311 311 309 307 308 311
304 306 306 306 306 308 308 308 308 309 310 310 310 311 312 313 312 313 313 312 312 311 311 311 311 311 311 311 311 311 310 309 309 309 309 308 308 309 308 308 308 307 308 307 307 307 307 307 307 309 309 310 309 310
305 306 306 304 307 308 308 308 308 309 310 310 310 310 311 311 312 312 312 312 312 312 311 311 311 311 311 311 311 310 310 310 309 309 308 309 309 308 308 307 307 308 307 307 307 306 306 306 306 305 305 307 309 309
305 305 308 306 307 308 307 308 308 309 309 310 310 310 311 311 311 310 311 312 312 312 312 311 311 311 311 310 311 311 310 309 309 310 309 308 308 307 307 308 307 307 306 306 306 305 305 305 305 306 306 305 305 307
306 306 306 306 307 308 308 308 308 309 309 309 310 310 310 310 310 310 311 311 312 311 311 311 311 311 310 310 309 309 308 308 307 307 306 305 305 305 306 307 308 308 307 307 306 306 305 305 304 304 305 305 305 305
306 307 307 307 307 308 308 308 308 308 309 309 309 310 309 309 311 311 311 311 310 310 310 310 310 309 309 308 308 307 306 305 305 304 304 304 304 304 304 305 305 302 303 304 305 305 304 304 305 305 305 304 304 305
307 308 308 308 307 307 308 308 308 309 309 310 311 310 311 309 309 309 309 310 310 310 309 309 309 309 308 306 306 305 305 304 303 303 304 304 302 301 300 298 298 299 299 300 300 300 300 302 303 304 303 303 304 304
307 308 307 307 307 308 308 309 309 310 309 309 309 309 309 309 309 310 309 309 309 309 309 308 307 307 306 305 305 304 304 303 302 301 301 299 298 296 295 295 295 295 296 297 297 297 297 299 300 302 303 303 303 303
307 307 307 307 307 308 309 309 309 309 309 309 310 312 312 310 308 308 308 308 308 308 308 307 306 305 305 305 304 303 303 302 301 299 298 296 296 295 296 296 296 296 296 296 296 295 295 296 298 300 302 302 303 302
307 307 306 307 309 309 309 311 311 311 312 312 312 311 311 310 310 309 308 307 306 305 304 303 304 304 303 303 302 302 301 300 298 298 298 297 296 296 296 295 295 294 294 295 295 295 295 295 296 297 299 300 301 302
307 307 307 307 308 309 309 310 310 310 310 310 310 310 309 309 309 308 308 306 305 303 302 302 302 302 302 301 301 301 300 298 298 296 295 295 294 294 294 294 294 294 294 294 295 295 294 294 295 296 298 298 298 300
Wind_Speed
7 4 3 5 7 11 15 17 18 19 20 20 20 18 17 20 18 9 7 10 7 9 10 15 16 12 3 7 6 4 6 3 6 4 4 0 5 4 2 9 2 4 5 5 3 3 5 12 7 8 5 4 6 6
8 5 3 3 6 10 13 16 17 18 18 18 17 16 14 17 17 9 7 9 8 9 10 14 16 14 13 12 6 1 3 4 6 7 2 4 3 2 7 3 9 5 7 5 7 5 6 8 7 5 4 6 7 6
10 6 3 2 5 9 13 15 15 16 16 16 15 15 13 14 17 13 8 11 2 8 8 7 9 12 12 12 10 5 5 5 2 4 7 2 3 7 3 2 11 7 4 4 5 5 8 5 4 4 7 6 6 5
11 7 3 1 4 9 12 14 14 15 15 15 13 14 13 11 13 16 10 13 6 5 3 5 2 9 10 9 8 6 4 2 4 4 5 2 1 2 8 9 11 9 7 9 8 9 6 5 6 4 5 5 5 6
10 6 3 1 4 8 11 12 13 13 14 13 11 13 13 10 9 8 9 12 10 6 3 6 6 8 8 6 6 5 3 5 4 4 1 4 3 4 3 5 10 11 8 5 5 10 9 8 5 4 2 4 5 4
10 6 3 1 5 9 10 11 12 13 13 10 10 11 14 11 8 2 4 7 13 9 4 4 6 6 7 4 4 5 2 3 3 4 4 4 2 4 3 6 10 9 7 6 5 7 8 6 4 2 3 4 4 3
10 6 3 2 6 9 10 11 12 12 10 8 8 8 10 12 11 4 5 6 8 7 4 4 5 5 3 1 3 5 2 2 4 2 4 4 3 4 9 9 11 10 7 4 2 4 3 2 3 3 4 5 2 3
10 7 3 3 6 8 9 10 11 10 7 6 6 5 7 5 3 4 6 9 5 6 5 1 3 3 5 2 5 2 3 3 3 2 1 3 2 4 5 8 10 12 10 2 2 3 4 2 5 5 6 6 4 4
10 6 4 4 5 6 9 10 11 8 5 5 3 2 1 2 2 4 7 5 3 4 3 3 3 5 4 4 2 4 3 3 1 3 3 4 4 6 5 8 10 11 12 12 8 7 3 4 5 5 7 8 6 4
10 7 3 2 4 6 8 10 10 5 4 4 4 5 3 4 5 7 3 3 3 2 2 3 2 5 5 2 3 2 1 1 3 4 2 5 5 6 5 7 8 10 12 15 12 9 5 7 6 8 7 8 8 5
9 5 2 1 3 6 8 10 8 4 4 2 2 4 4 3 3 1 0 1 1 3 3 3 6 3 3 5 3 3 3 1 3 5 2 3 4 5 6 8 10 12 13 14 14 14 13 11 10 9 9 9 8 7
8 5 2 1 4 5 7 10 7 6 3 3 3 2 2 2 1 1 1 3 2 3 2 5 5 4 2 3 3 2 2 2 3 2 2 4 2 6 8 9 11 13 15 15 15 15 16 15 16 15 12 10 10 8
8 5 3 2 3 3 6 9 9 6 3 1 2 1 3 2 3 2 2 3 4 2 3 3 3 3 4 2 1 3 2 1 1 3 4 3 3 7 8 9 12 15 16 16 17 18 17 17 15 13 14 8 12 10
7 5 3 2 3 3 5 7 8 4 2 2 1 3 2 3 3 4 7 6 4 2 3 4 1 4 2 2 3 3 3 3 2 0 4 3 6 8 9 14 16 16 19 19 20 20 19 19 16 13 7 7 14 14
7 5 3 3 3 1 3 5 7 4 4 2 1 0 3 4 6 5 4 6 4 3 5 3 2 3 3 2 2 3 2 3 4 4 3 4 7 8 9 13 14 16 18 16 16 13 14 15 14 17 5 7 9 12
7 5 2 0 2 1 3 5 5 2 1 2 1 6 6 6 6 5 5 5 6 5 3 3 2 2 1 3 2 1 4 5 3 2 2 3 7 7 9 12 15 16 18 19 19 18 15 13 12 10 4 6 7 9
6 0 3 1 3 5 5 3 3 3 2 1 2 3 6 7 6 5 5 5 8 5 3 2 3 4 3 3 0 3 4 3 3 3 5 5 6 7 10 13 15 15 18 23 21 19 11 11 9 7 6 6 7 10
2 2 3 4 4 3 3 5 2 2 3 1 4 4 5 4 4 4 5 8 6 4 4 4 3 3 2 3 3 3 3 3 2 3 4 6 6 10 12 14 16 15 15 19 23 19 17 14 9 6 6 4 6 13
6 4 5 4 4 2 2 3 4 2 3 2 3 2 3 4 4 3 3 5 4 3 4 2 3 2 2 3 5 3 0 1 5 4 3 4 1 8 12 15 17 14 16 13 15 16 16 17 20 13 11 8 10 12
9 8 6 5 5 1 2 2 2 1 2 3 1 2 1 3 3 1 2 3 4 2 2 2 3 3 4 5 3 3 5 3 4 5 3 6 5 10 11 14 17 19 17 15 12 11 17 22 26 25 25 15 14 9
7 3 5 4 3 4 3 1 2 3 2 1 2 2 2 1 1 1 3 4 3 2 2 1 2 6 4 3 4 4 1 6 8 7 7 8 13 13 13 14 16 17 18 18 17 15 13 13 16 21 28 34 21 12
3 4 2 3 2 1 2 2 2 2 2 2 3 2 1 0 0 2 3 3 2 2 2 3 2 2 5 3 0 3 6 7 8 12 6 10 10 11 12 11 11 14 14 17 16 15 19 13 14 15 20 30 29 21
5 2 2 2 2 3 1 1 1 1 2 3 2 2 2 2 2 1 2 1 2 4 4 2 3 2 6 2 4 7 3 7 12 10 9 12 14 12 7 13 12 10 14 16 18 18 15 14 17 13 13 23 27 26
5 2 1 1 2 2 2 2 1 2 2 3 2 2 3 1 1 2 3 1 4 2 3 1 6 6 4 5 7 9 8 11 13 12 11 13 15 16 16 15 14 14 11 13 17 17 17 16 14 17 16 17 18 22
1 2 2 2 2 4 4 5 4 4 3 3 4 2 2 2 2 2 1 0 2 3 3 3 6 4 4 4 8 7 5 10 14 16 16 17 16 15 19 23 20 15 11 11 16 16 17 16 15 15 17 18 18 20
1 3 2 3 4 4 4 4 5 4 3 4 3 2 2 1 2 2 1 3 3 3 4 6 3 6 4 6 10 10 12 15 16 18 19 17 17 20 20 17 17 16 13 12 15 18 21 22 20 18 17 18 19 20
2 3 3 2 1 3 3 2 3 4 4 4 3 4 3 3 3 2 4 3 2 3 4 4 6 9 11 11 13 11 10 12 15 17 21 22 22 22 19 19 20 18 18 18 20 20 18 18 20 23 21 20 18 18
1 4 5 5 3 2 3 4 5 4 3 1 1 4 2 1 2 3 4 1 4 4 6 5 6 8 9 10 13 14 14 14 16 19 22 23 22 18 13 16 14 17 15 17 18 19 20 22 21 22 23 23 22 18
4 3 5 5 4 3 3 2 2 1 1 2 2 1 0 0 3 5 4 4 5 6 8 11 6 6 11 14 11 12 13 14 17 19 17 15 20 22 24 23 22 22 22 22 22 21 22 22 22 23 24 24 26 28
5 4 3 4 4 4 3 1 1 4 2 1 1 1 3 6 4 4 6 7 8 7 7 7 10 10 10 12 13 12 13 12 9 12 14 16 20 19 18 18 19 19 19 20 22 23 23 24 24 25 25 23 17 20
5 3 2 2 2 3 4 3 1 1 2 3 1 3 5 8 10 6 5 6 7 7 7 9 8 8 9 10 11 13 14 13 14 14 11 12 13 14 15 17 18 19 20 21 22 22 21 22 22 24 25 22 19 17
4 3 2 3 3 3 3 3 3 3 3 5 7 8 7 7 7 5 5 7 7 7 5 6 8 8 8 9 11 12 12 15 13 9 9 10 13 14 16 17 18 19 19 20 22 22 19 20 20 22 21 19 21 21
2 3 3 1 2 2 3 3 4 4 6 6 7 6 6 5 5 0 5 7 6 6 6 6 7 7 7 8 9 11 11 10 10 13 17 15 16 18 19 18 20 21 22 20 20 20 20 20 19 19 21 18 21 21
Wind_Direction
162 140 107 56 32 21 16 15 15 13 12 13 15 18 20 18 18 31 34 13 354 90 57 50 41 31 17 347 6 60 234 199 259 286 297 71 6 77 131 183 311 106 317 61 276 283 82 10 1 7 12 24 359 20
166 142 116 56 26 16 11 12 12 10 9 11 13 17 19 19 23 24 38 12 11 41 97 83 68 53 42 30 341 220 20 21 12 298 36 257 176 105 74 56 65 51 31 8 7 53 49 29 49 37 16 28 19 24
172 161 136 55 20 9 6 8 8 6 6 8 13 18 19 24 33 40 25 5 275 137 143 97 43 43 33 29 18 318 86 352 107 321 326 215 182 57 42 123 86 95 10 52 136 69 32 73 66 46 38 43 41 58
174 169 159 28 9 359 1 2 2 1 3 6 16 18 18 23 34 42 34 6 338 315 143 95 102 41 21 18 28 34 23 6 272 254 270 344 33 29 64 72 52 8 330 29 41 19 75 121 55 67 74 60 60 44
175 171 173 322 345 350 354 356 357 358 2 8 16 17 17 16 12 37 40 34 25 334 44 109 130 32 21 27 37 49 30 304 254 202 302 66 56 332 38 101 44 3 9 21 39 32 359 43 80 101 96 61 52 88
174 175 191 269 336 345 349 353 354 357 359 4 12 21 29 21 14 337 162 33 9 354 279 133 88 29 45 43 58 65 47 296 323 340 64 87 360 296 5 89 39 10 18 1 39 28 52 65 76 73 80 79 90 98
175 190 209 281 330 342 347 350 350 350 355 1 14 23 30 38 35 12 23 329 349 349 278 158 130 71 29 183 70 98 136 55 347 113 25 65 62 303 33 50 16 9 357 357 63 348 81 208 74 134 115 100 125 91
183 196 218 290 328 341 347 347 346 347 352 5 16 30 37 25 43 86 8 2 33 289 279 297 104 154 345 28 99 291 117 150 15 87 190 62 108 67 59 7 21 8 351 40 313 5 316 50 147 158 152 163 164 174
186 199 226 302 333 346 347 347 348 351 358 4 18 347 310 349 48 42 329 348 347 314 340 314 6 82 246 95 135 133 279 89 258 90 96 256 87 53 19 17 18 14 6 347 310 285 278 248 225 186 195 192 218 164
190 200 241 314 348 354 352 355 354 356 3 3 338 233 116 32 341 324 240 204 193 162 260 62 259 83 301 276 109 206 297 79 173 66 261 96 83 77 35 34 18 10 6 4 2 343 283 264 252 237 229 225 234 186
188 204 208 349 12 5 5 5 10 22 29 301 321 51 59 352 268 307 105 294 218 133 17 59 7 22 26 347 33 2 356 9 225 113 240 136 87 63 25 18 12 1 356 354 350 342 325 299 281 267 235 231 227 200
187 183 162 70 29 16 10 18 34 39 22 354 353 323 289 261 6 276 105 170 359 56 69 8 38 351 46 300 287 51 310 228 54 103 248 77 67 43 14 360 356 348 345 342 338 332 324 313 293 267 251 220 222 206
175 162 148 77 32 20 19 23 22 18 30 287 246 72 27 114 27 279 133 149 120 51 33 333 107 330 184 250 284 290 265 62 36 233 74 83 51 28 2 353 345 348 344 337 338 333 325 314 302 267 260 217 203 191
163 161 136 72 24 29 22 19 13 12 323 348 61 16 283 116 69 36 49 60 73 30 30 324 51 355 2 351 327 285 38 265 269 334 76 74 25 7 351 350 346 347 347 346 346 340 333 323 313 289 228 255 193 185
163 149 111 20 7 27 16 15 22 22 339 20 318 79 82 87 90 92 86 83 52 347 345 293 210 295 45 269 341 1 233 237 33 71 77 37 12 350 355 356 350 353 343 340 331 328 331 330 317 319 225 228 208 198
134 90 358 340 4 54 20 27 21 8 17 7 271 124 124 120 115 87 61 63 12 331 264 265 310 345 0 323 269 15 298 39 80 49 25 9 8 354 357 341 349 345 346 346 330 326 326 331 327 322 268 235 222 199
99 66 206 139 93 58 41 26 15 42 21 11 99 5 45 65 70 57 36 17 335 303 21 334 300 26 305 295 282 1 30 66 347 8 21 42 343 349 340 339 341 347 353 348 335 330 331 322 321 309 276 265 244 233
99 160 139 123 99 52 38 21 37 33 76 114 134 91 48 65 96 75 54 20 357 3 321 19 317 256 300 300 30 75 31 10 360 5 6 10 351 344 338 336 334 342 355 347 346 334 325 317 293 278 246 241 245 242
148 134 126 117 77 48 40 56 336 82 60 70 90 88 68 89 77 77 43 47 17 357 295 275 277 280 23 52 331 19 340 0 348 340 27 261 334 358 331 329 325 344 334 333 337 347 337 328 316 277 253 215 209 211
122 116 112 89 58 62 104 69 306 44 138 81 135 153 61 51 62 2 338 351 340 290 221 233 295 41 16 49 4 13 7 327 326 319 312 8 31 335 346 334 341 322 332 345 338 356 345 353 352 349 332 232 239 283
98 106 85 70 55 42 58 21 77 15 136 168 121 237 93 177 251 332 342 19 265 295 274 235 310 82 25 15 25 359 82 359 337 337 344 332 343 323 318 339 340 353 345 331 340 343 347 349 348 348 349 335 315 254
118 100 88 38 69 56 76 22 20 129 247 109 189 220 210 233 291 68 352 241 266 341 348 327 66 54 169 177 266 321 356 316 314 299 264 282 283 312 354 337 328 333 331 325 346 343 338 328 337 334 334 324 319 310
91 53 66 57 80 72 206 231 196 238 186 150 195 177 174 190 70 321 259 319 314 61 320 293 60 283 319 132 265 273 301 314 301 320 321 316 316 316 302 300 325 326 325 339 336 329 336 337 347 330 334 336 330 323
42 51 34 86 133 114 188 173 206 175 180 189 191 196 169 142 90 233 271 37 68 40 212 184 249 246 229 279 358 321 317 337 307 321 328 323 321 322 319 316 313 321 329 333 322 327 331 339 343 337 336 325 320 322
55 10 133 301 209 182 176 165 184 206 184 178 190 185 166 193 241 236 310 75 358 6 0 239 262 271 248 234 264 311 342 319 325 322 331 334 323 321 323 317 316 316 335 325 316 322 324 328 335 338 337 333 329 328
79 171 194 177 165 194 172 165 189 188 171 174 197 151 188 225 259 244 148 44 16 360 335 325 317 283 317 320 308 319 327 327 323 322 314 317 311 302 295 293 305 314 314 310 307 316 320 318 320 323 329 333 331 326
200 164 176 268 161 179 181 162 169 174 190 205 176 189 196 225 229 158 91 49 10 2 330 321 316 317 325 321 319 319 319 311 308 319 314 306 302 309 326 316 308 319 323 311 308 305 304 307 314 316 320 324 325 326
319 207 160 171 183 235 185 173 183 204 141 241 230 213 227 123 256 55 43 337 303 305 299 298 297 305 310 312 309 310 313 319 317 310 311 311 308 324 356 333 337 339 333 316 311 308 303 304 308 307 310 318 318 317
196 205 154 171 159 177 207 195 202 125 70 202 277 86 284 112 349 301 292 271 275 287 283 283 290 260 295 298 300 315 324 328 326 319 317 319 324 322 328 327 321 318 317 311 310 316 314 308 300 296 295 298 304 303
149 201 173 168 213 181 109 280 134 106 200 222 245 267 251 258 295 300 283 271 261 262 282 297 296 291 306 319 316 319 321 323 335 324 320 316 315 317 321 325 328 327 323 318 313 308 306 300 297 299 288 283 299 314
146 205 225 185 117 78 83 117 149 227 229 234 242 274 271 283 294 249 257 264 270 262 258 269 290 308 312 312 318 317 315 321 320 315 306 302 309 312 318 320 320 319 317 315 312 311 306 305 302 300 294 299 298 309
202 207 209 193 127 120 173 216 217 228 237 234 247 242 245 241 249 242 198 224 241 271 287 284 286 294 308 307 307 308 313 310 307 301 299 304 306 308 313 315 314 319 313 308 312 310 306 308 303 306 305 305 304 306
198 182 247 176 195 209 227 234 248 257 258 244 255 260 264 273 283 169 181 223 258 290 295 293 291 294 299 299 304 310 312 308 298 292 300 301 298 306 306 310 316 314 321 312 307 310 306 307 306 304 293 296 296 302